GW2049 Weather Reports


time (UTC)temp
F
wind
direction
speed
knots
gust
knots
rain 1hr
in
rain 24hr
in
rain mn
in
humidity
%
barometer
mb
20260504031017 44 239 0.0 0.0 0.00 0.00 0.00 75 1011.1
20260504030515 44 287 0.0 0.9 0.00 0.00 0.00 74 1011.1
20260504030010 45 240 0.0 0.0 0.00 0.00 0.00 72 1010.7
20260504025507 45 242 0.0 0.0 0.00 0.00 0.00 71 1011.1
20260504025004 46 239 0.0 0.0 0.00 0.00 0.00 70 1011.1
20260504024502 46 241 0.0 0.0 0.00 0.00 0.00 68 1011.1
20260504023959 47 239 0.0 0.0 0.00 0.00 0.00 67 1010.7
20260504023455 48 245 0.0 0.0 0.00 0.00 0.00 65 1011.1
20260504022950 48 252 0.0 0.0 0.00 0.00 0.00 62 1010.7
20260504022447 49 236 0.0 0.0 0.00 0.00 0.00 62 1010.7
20260504021943 49 237 0.0 0.0 0.00 0.00 0.00 59 1010.7
20260504021441 50 240 0.0 0.0 0.00 0.00 0.00 56 1010.7
20260504020938 50 231 0.9 0.9 0.00 0.00 0.00 58 1010.7
20260504020434 51 238 0.0 0.0 0.00 0.00 0.00 56 1010.7
20260504015931 51 230 0.0 0.0 0.00 0.00 0.00 55 1011.1
20260504015427 51 235 0.0 0.0 0.00 0.00 0.00 54 1011.1
20260504014923 52 246 0.0 0.0 0.00 0.00 0.00 50 1010.7
20260504014419 53 225 0.9 0.9 0.00 0.00 0.00 50 1011.1
20260504013916 53 245 0.0 0.0 0.00 0.00 0.00 49 1011.1
20260504013415 52 246 0.9 0.9 0.00 0.00 0.00 49 1011.1
20260504012911 52 66 0.9 1.7 0.00 0.00 0.00 52 1011.1
20260504012409 52 235 0.0 0.9 0.00 0.00 0.00 50 1011.1
20260504011906 53 232 0.9 0.9 0.00 0.00 0.00 50 1010.7
20260504011403 53 227 0.9 0.9 0.00 0.00 0.00 46 1011.1
20260504010858 53 245 0.0 0.0 0.00 0.00 0.00 49 1010.7
20260504010355 53 246 0.0 0.0 0.00 0.00 0.00 46 1010.7
20260504005851 54 261 0.0 0.0 0.00 0.00 0.00 45 1010.7
20260504005348 54 251 0.9 0.9 0.00 0.00 0.00 45 1010.7
20260504004845 54 246 0.0 0.0 0.00 0.00 0.00 45 1010.7
20260504004343 55 273 0.9 1.7 0.00 0.00 0.00 45 1010.7
20260504003839 55 245 2.6 2.6 0.00 0.00 0.00 44 1010.7
20260504003336 55 254 1.7 1.7 0.00 0.00 0.00 44 1010.7
20260504002833 55 234 2.6 2.6 0.00 0.00 0.00 44 1010.7
20260504002330 55 287 0.0 0.9 0.00 0.00 0.00 44 1010.7
20260504001827 55 308 0.9 1.7 0.00 0.00 0.00 44 1011.1
20260504001324 55 264 0.9 1.7 0.00 0.00 0.00 43 1010.7
20260504000821 55 252 0.9 1.7 0.00 0.00 0.00 42 1010.7
20260504000318 55 257 1.7 2.6 0.00 0.00 0.00 43 1010.7
20260503235816 55 252 2.6 2.6 0.00 0.00 0.00 41 1010.7
20260503235313 55 251 0.9 0.9 0.00 0.00 0.00 42 1010.7
20260503234811 56 264 1.7 1.7 0.00 0.00 0.00 41 1010.7
20260503234308 56 254 0.9 0.9 0.00 0.00 0.00 43 1010.7
20260503233806 56 323 1.7 1.7 0.00 0.00 0.00 42 1010.7
20260503233301 56 273 0.9 1.7 0.00 0.00 0.00 41 1010.4
20260503232759 56 258 0.9 1.7 0.00 0.00 0.00 40 1010.7
20260503232256 56 332 1.7 1.7 0.00 0.00 0.00 40 1010.4
20260503231754 57 245 0.9 0.9 0.00 0.00 0.00 42 1010.4
20260503231251 57 274 1.7 1.7 0.00 0.00 0.00 41 1010.1
20260503230746 57 268 0.0 0.9 0.00 0.00 0.00 44 1010.4
20260503230244 57 253 0.9 0.9 0.00 0.00 0.00 43 1010.4
20260503225741 57 249 0.9 1.7 0.00 0.00 0.00 42 1010.1
20260503225241 57 265 0.9 0.9 0.00 0.00 0.00 42 1010.1
20260503224738 57 277 1.7 1.7 0.00 0.00 0.00 40 1010.1
20260503224236 58 277 1.7 1.7 0.00 0.00 0.00 40 1010.1
20260503223734 58 256 0.9 0.9 0.00 0.00 0.00 39 1009.7
20260503223231 59 214 0.9 0.9 0.00 0.00 0.00 39 1010.1
20260503222727 59 335 1.7 2.6 0.00 0.00 0.00 39 1010.1
20260503222225 59 274 2.6 2.6 0.00 0.00 0.00 39 1010.1
20260503221723 59 305 1.7 2.6 0.00 0.00 0.00 39 1010.1
20260503221221 58 54 0.9 0.9 0.00 0.00 0.00 40 1010.4
20260503220717 58 180 3.5 5.2 0.00 0.00 0.00 41 1010.1
20260503220214 58 352 0.9 1.7 0.00 0.00 0.00 41 1010.1
20260503215711 59 254 2.6 2.6 0.00 0.00 0.00 40 1010.1
20260503215208 59 250 3.5 5.2 0.00 0.00 0.00 39 1010.1
20260503214706 59 324 0.9 1.7 0.00 0.00 0.00 40 1010.1
20260503214201 59 243 1.7 1.7 0.00 0.00 0.00 41 1010.1
20260503213655 60 243 1.7 2.6 0.00 0.00 0.00 40 1010.1
20260503213152 59 356 1.7 2.6 0.00 0.00 0.00 42 1010.1
20260503212649 59 50 2.6 2.6 0.00 0.00 0.00 41 1010.1
20260503212146 59 266 1.7 2.6 0.00 0.00 0.00 41 1010.1
20260503211644 58 174 2.6 2.6 0.00 0.00 0.00 42 1010.1
20260503211139 59 242 2.6 2.6 0.00 0.00 0.00 41 1010.1
20260503210636 58 265 3.5 5.2 0.00 0.00 0.00 41 1010.1
20260503210132 57 232 3.5 5.2 0.00 0.00 0.00 42 1010.1
20260503205628 57 282 1.7 2.6 0.00 0.00 0.00 43 1010.1
20260503205125 57 324 2.6 4.3 0.00 0.00 0.00 44 1010.1
20260503204621 57 218 2.6 5.2 0.00 0.00 0.00 42 1010.4
20260503204119 57 306 3.5 5.2 0.00 0.00 0.00 43 1010.7
20260503203616 57 276 1.7 2.6 0.00 0.00 0.00 43 1010.4
20260503203114 57 274 1.7 2.6 0.00 0.00 0.00 43 1010.4
20260503202611 57 241 2.6 6.1 0.00 0.00 0.00 43 1010.4
20260503202109 56 244 0.9 0.9 0.00 0.00 0.00 44 1010.4
20260503201607 57 272 1.7 2.6 0.00 0.00 0.00 43 1010.4
20260503201104 57 268 2.6 4.3 0.00 0.00 0.00 43 1010.7
20260503200600 58 238 3.5 4.3 0.00 0.00 0.00 42 1010.7
20260503200056 57 255 2.6 2.6 0.00 0.00 0.00 44 1011.1
20260503195554 57 10 1.7 2.6 0.00 0.00 0.00 45 1010.7
20260503195050 58 307 1.7 1.7 0.00 0.00 0.00 42 1011.1
20260503194547 59 337 4.3 6.1 0.00 0.00 0.00 41 1010.7
20260503194047 59 269 2.6 2.6 0.00 0.00 0.00 42 1011.1
20260503193544 60 260 1.7 2.6 0.00 0.00 0.00 42 1011.1
20260503193039 58 218 3.5 5.2 0.00 0.00 0.00 44 1011.4
20260503192535 59 229 1.7 1.7 0.00 0.00 0.00 41 1011.1
20260503192031 58 290 0.9 0.9 0.00 0.00 0.00 42 1011.4
20260503191528 58 270 0.0 0.9 0.00 0.00 0.00 45 1011.1
20260503191025 58 297 2.6 2.6 0.00 0.00 0.00 43 1011.4
20260503190522 58 323 3.5 5.2 0.00 0.00 0.00 41 1011.4
20260503190019 58 153 6.1 7.0 0.00 0.00 0.00 42 1011.8
20260503185515 58 311 0.9 1.7 0.00 0.00 0.00 43 1011.8
20260503185015 57 251 0.9 0.9 0.00 0.00 0.00 42 1011.8
20260503184512 58 208 2.6 5.2 0.00 0.00 0.00 44 1011.8
20260503184008 56 251 0.9 0.9 0.00 0.00 0.00 43 1011.8
20260503183505 57 108 4.3 7.8 0.00 0.00 0.00 41 1011.8
20260503183002 57 233 1.7 2.6 0.00 0.00 0.00 40 1011.8
20260503182500 55 330 0.9 0.9 0.00 0.00 0.00 43 1012.1
20260503181957 55 244 2.6 2.6 0.00 0.00 0.00 44 1012.1
20260503181454 57 323 7.0 11.3 0.00 0.00 0.00 42 1012.1
20260503180950 57 277 2.6 2.6 0.00 0.00 0.00 42 1012.1
20260503180449 57 233 1.7 2.6 0.00 0.00 0.00 42 1012.1
20260503175945 54 239 2.6 4.3 0.00 0.00 0.00 45 1012.5
20260503175443 54 319 6.1 7.8 0.00 0.00 0.00 43 1012.5
20260503174939 54 298 3.5 4.3 0.00 0.00 0.00 43 1012.5
20260503174437 55 274 2.6 2.6 0.00 0.00 0.00 43 1012.1
20260503173932 56 303 1.7 1.7 0.00 0.00 0.00 42 1012.1
20260503173428 55 215 0.9 0.9 0.00 0.00 0.00 43 1012.5
20260503172926 55 294 4.3 7.0 0.00 0.00 0.00 41 1012.5
20260503172423 55 256 3.5 5.2 0.00 0.00 0.00 43 1012.5
20260503171919 55 282 3.5 5.2 0.00 0.00 0.00 42 1012.5
20260503171416 56 1 4.3 7.0 0.00 0.00 0.00 42 1012.5
20260503170914 54 301 3.5 5.2 0.00 0.00 0.00 42 1012.9
20260503170409 54 186 6.1 7.8 0.00 0.00 0.00 43 1012.9
20260503150802 54 229 0.9 1.7 0.00 0.00 0.00 45 1013.9
20260503150258 54 269 5.2 7.0 0.00 0.00 0.00 44 1013.9
20260503140222 50 144 0.9 0.9 0.00 0.00 0.00 49 1014.2
20260503131152 48 245 2.6 2.6 0.00 0.00 0.00 54 1014.6
20260503130649 48 299 0.9 1.7 0.00 0.00 0.00 55 1014.6
20260503130147 46 310 2.6 4.3 0.00 0.00 0.00 60 1014.6
20260503120112 40 229 0.0 0.9 0.00 0.00 0.00 81 1014.6
20260503110539 29 233 0.0 0.0 0.00 0.00 0.00 99 1014.6
20260503090426 30 241 0.0 0.0 0.00 0.00 0.00 96 1014.2
20260503081353 32 241 0.0 0.0 0.00 0.00 0.00 93 1014.2
20260503080849 32 237 0.0 0.0 0.00 0.00 0.00 92 1013.9
20260503080347 33 238 0.0 0.0 0.00 0.00 0.00 92 1013.9
20260503072823 35 247 0.0 0.0 0.00 0.00 0.00 87 1013.9
20260503072320 35 240 0.0 0.0 0.00 0.00 0.00 87 1013.9
20260503071816 35 240 0.0 0.0 0.00 0.00 0.00 86 1013.9
20260503071314 36 247 0.0 0.0 0.00 0.00 0.00 85 1013.9
20260503070810 36 239 0.0 0.0 0.00 0.00 0.00 85 1013.9
20260503070308 37 242 0.0 0.0 0.00 0.00 0.00 84 1013.9
20260503060232 37 258 0.0 0.9 0.00 0.00 0.00 81 1014.6
20260503054719 37 251 0.0 0.9 0.00 0.00 0.00 82 1014.2
20260503054216 37 248 0.0 0.0 0.00 0.00 0.00 82 1014.6
20260503053715 37 243 0.0 0.0 0.00 0.00 0.00 82 1014.6
20260503053213 37 245 0.0 0.0 0.00 0.00 0.00 82 1014.6
20260503052709 37 249 0.0 0.0 0.00 0.00 0.00 83 1014.6
20260503052206 37 246 0.0 0.0 0.00 0.00 0.00 82 1014.2
20260503051701 37 265 0.9 0.9 0.00 0.00 0.00 82 1014.6
20260503051159 37 245 0.0 0.0 0.00 0.00 0.00 81 1014.6
20260503050655 37 248 0.0 0.0 0.00 0.00 0.00 81 1014.9
20260503050152 37 245 0.0 0.0 0.00 0.00 0.00 80 1014.6
20260503045649 37 248 0.0 0.0 0.00 0.00 0.00 80 1014.6
20260503045146 38 274 0.9 0.9 0.00 0.00 0.00 80 1014.6
20260503044643 38 329 1.7 1.7 0.00 0.00 0.00 79 1014.9
20260503044141 38 273 0.9 1.7 0.00 0.00 0.00 79 1014.9
20260503043637 38 248 0.0 0.0 0.00 0.00 0.00 79 1014.9
20260503043134 38 293 0.9 0.9 0.00 0.00 0.00 79 1014.9
20260503042630 38 264 0.9 0.9 0.00 0.00 0.00 79 1014.9
20260503042126 38 243 0.0 0.0 0.00 0.00 0.00 78 1014.9
20260503041623 38 315 1.7 1.7 0.00 0.00 0.00 78 1014.9
20260503041121 38 254 0.0 0.0 0.00 0.00 0.00 78 1014.9
20260503040618 38 256 0.0 0.9 0.00 0.00 0.00 77 1014.9
20260503040116 38 231 0.9 0.9 0.00 0.00 0.00 78 1015.4
20260503035612 38 248 0.0 0.0 0.00 0.00 0.00 77 1014.9
20260503035110 38 242 0.0 0.0 0.00 0.00 0.00 77 1015.4
20260503034607 38 248 0.0 0.9 0.00 0.00 0.00 77 1015.4
20260503034104 38 242 0.0 0.0 0.00 0.00 0.00 77 1014.9
20260503033601 38 273 0.0 0.9 0.00 0.00 0.00 77 1015.4
20260503033059 38 247 0.9 0.9 0.00 0.00 0.00 77 1015.4
20260503032557 38 264 0.9 0.9 0.00 0.00 0.00 77 1014.9
20260503032055 38 248 0.0 0.0 0.00 0.00 0.00 77 1015.4
20260503031552 38 248 0.0 0.0 0.00 0.00 0.00 76 1014.9